Tracking 29892 objects as of 21-Nov-2024
HD Live streaming from Space Station
objects crossing your sky now

STARLINK-11306

Track STARLINK-11306 now!
10-day predictions
STARLINK-11306 is classified as:


NORAD ID: 61254
Int'l Code: 2024-175M
Perigee: 366.4 km
Apogee: 367.4 km
Inclination: 53.2 °
Period: 91.7 minutes
Semi major axis: 6737 km
RCS: Unknown
Launch date: September 25, 2024
Source: United States (US)
Launch site: AIR FORCE WESTERN TEST RANGE (AFWTR)
Your satellite tracking list
Your tracking list is empty




NASA's NSSDC Master Catalog

Two Line Element Set (TLE):
1 61254U 24175M   24326.11102643 -.00000427  00000-0  13310-5 0  9999
2 61254  53.1571 230.9816 0000744 103.3990 256.7111 15.69712429 10180
Source of the keplerian elements: AFSPC